[[{"header":{"parameterUnit":"m.s-1","parameterCategory":1,"la1":30.2991,"la2":30.254,"lo1":-89.0895,"lo2":-89.0444,"dy":0.0017,"dx":0.0017,"nx":28,"ny":28,"refTime":"2024-04-28T03:00:00:Z","depth":0,"parameterNumber":2,"parameterNumberName":"U-component_of_WINDS"},"data":[0,0,0,0,0,0,0,0,0,0,0,0,0,0,0,0,0,0,0,0,0,0,0,0,0,0,0,0,0,0,0,0,0,0,0,0,0,0,0,0,0,0,0,0,0,0,0,0,0,0,0,0,0,0,0,0,0,0,-7.8692,-7.8694,0,-7.8868,-7.887,-7.8872,-7.887,-7.8868,-7.8865,-7.8863,-7.9036,-7.9043,-7.905,0,0,0,0,0,0,0,0,0,0,0,0,0,-7.8349,-7.8355,-7.8692,-7.8694,-7.8697,-7.8868,-7.8871,-7.8873,-7.8871,-7.8868,-7.8865,-7.8862,-7.9034,-7.9042,-7.905,0,0,0,0,0,0,0,0,0,0,0,0,0,-7.8509,-7.8357,-7.8692,-7.8716,-7.872,-7.8868,-7.8871,-7.8874,-7.8871,-7.8868,-7.8864,-7.8861,-7.9031,-7.9041,-7.9051,-7.9184,0,0,-7.9082,-7.9087,0,0,0,0,0,0,0,0,-7.85,-7.8521,-7.8711,-7.8715,-7.872,-7.8844,-7.8813,-7.8977,-7.8872,-7.8814,-7.8863,-7.8859,-7.8975,-7.8989,-7.903,-7.9192,-7.9199,-7.9083,-7.9089,-7.9094,-7.9097,0,0,0,0,0,0,0,-7.8489,-7.8514,-7.8762,-7.8713,-7.8719,-7.8717,-7.8736,-7.8844,-7.8911,-7.8818,-7.8819,-7.884,-7.8976,-7.902,-7.9034,-7.9202,-7.9083,-7.9092,-7.9098,-7.9102,-7.9482,-7.9486,0,0,0,0,0,0,-7.8473,-7.8504,-7.8756,-7.8767,-7.8599,-7.8726,-7.8747,-7.8807,-7.891,-7.8923,-7.8843,-7.8839,-7.9004,-7.9022,-7.904,-7.9201,-7.9094,-7.9103,-7.9109,-7.9478,-7.9483,-7.9488,0,0,0,0,0,0,-7.8466,-7.8496,-7.8749,-7.8636,-7.8668,-7.8736,-7.8803,-7.8813,-7.8856,-7.8929,-7.894,-7.8875,-7.9002,-7.9025,-7.9149,-7.9207,-7.9108,-7.9117,-7.9474,-7.948,-7.9485,-7.9524,0,0,0,0,0,0,-7.8456,-7.8493,-7.8545,-7.8637,-7.8674,-7.8856,-7.8807,-7.8819,-7.8875,-7.8872,-7.8962,-7.8974,-7.9001,-7.9134,-7.9159,-7.9219,-7.9125,-7.9469,-7.9476,-7.9483,-7.9518,-7.9531,-7.9542,0,0,0,0,0,-7.8444,-7.8547,-7.8547,-7.8578,-7.8741,-7.886,-7.888,-7.8912,-7.8879,-7.8931,-7.8978,-7.8971,-7.9198,-7.9146,-7.9175,-7.9239,-7.9465,-7.9474,-7.9483,-7.9513,-7.9528,-7.9542,0,0,0,0,0,0,-7.8456,-7.8559,-7.8561,-7.8698,-7.877,-7.8859,-7.8925,-7.8928,-7.9009,-7.9002,-7.9037,-7.9057,-7.918,-7.9223,-7.9163,-7.9373,-7.9327,-7.9342,-7.934,-7.9355,-7.9367,-7.9352,-7.9133,0,0,0,0,0,-7.8475,-7.8565,-7.865,-7.8762,-7.8799,-7.8856,-7.8909,-7.8928,-7.9004,-7.9033,-7.9089,-7.9161,-7.9249,-7.9305,-7.939,-7.9526,-7.9545,-7.9585,-7.9597,-7.9606,-7.9617,-7.9692,-7.971,-7.9517,-7.9517,-7.9517,0,0,-7.8514,-7.8582,-7.8636,-7.8767,-7.8825,-7.8916,-7.8882,-7.8978,-7.9045,-7.9047,-7.9167,-7.9211,-7.9294,-7.9424,-7.9484,-7.9463,-7.9676,-7.9618,-7.9625,-7.963,-7.9703,-7.9721,-7.9737,-7.9523,-7.9522,-7.9521,0,0,-7.8631,-7.8693,-7.8793,-7.8854,-7.8944,-7.8982,-7.9007,-7.9097,-7.9126,-7.9249,-7.9252,-7.9332,-7.9482,-7.9541,-7.959,-7.9735,-7.973,-7.9762,-7.9822,-7.9895,-7.991,-7.9923,-7.9973,-7.999,-7.9774,-7.9774,-7.9774,0,-7.8667,-7.8805,-7.8843,-7.8942,-7.8998,-7.9009,-7.911,-7.9166,-7.9279,-7.9317,-7.9293,-7.9483,-7.954,-7.9684,-7.9719,-7.976,-7.9787,-7.9749,-7.9905,-7.9919,-7.9932,-7.998,-7.9998,-7.9777,-7.9777,-7.9776,-7.9776,0,-7.8844,-7.8941,-7.9011,-7.9122,-7.9188,-7.9287,-7.9338,-7.94,-7.9415,-7.9455,-7.9579,-7.9649,-7.9747,-7.9784,-7.9798,-7.9931,-7.9915,-7.9898,-7.9852,-7.9953,-7.9998,-8.0017,-7.9781,-7.978,-7.9779,-7.9778,0,0,-7.8968,-7.9103,-7.9128,-7.9179,-7.9282,-7.9356,-7.9457,-7.9556,-7.9608,-7.9687,-7.9769,-7.9899,-7.9885,-7.9941,-7.9963,-8.0028,-8.0136,-8.0003,-8.0005,-8.0022,-8.0284,-8.0293,-8.0314,-8.0136,-8.014,-8.0143,-8.0276,0,-7.9093,-7.9273,-7.9312,-7.9465,-7.9554,-7.9568,-7.9655,-7.9727,-7.9769,-7.9849,-7.9895,-7.9985,-7.9961,-7.9995,-8.006,-8.0109,-8.0188,-8.01,-8.021,-8.0214,-8.0185,-8.0338,-8.0347,-8.047,-8.0294,-8.0298,-8.03,0,-7.9262,-7.9348,-7.9511,-7.9605,-7.9643,-7.9721,-7.9816,-7.9894,-7.9976,-8.0002,-8.0068,-8.0084,-8.0187,-8.014,-8.0282,-8.0222,-8.027,-8.0301,-8.0307,-8.0314,-8.0259,-8.0346,-8.051,-8.0527,-8.0328,-8.0326,-8.0324,0,-7.9332,-7.9489,-7.9607,-7.9651,-7.9763,-7.9818,-7.9866,-7.9946,-8.0004,-8.0088,-8.0126,-8.022,-8.027,-8.0342,-8.0382,-8.0345,-8.0521,-8.0477,-8.0542,-8.0541,-8.0574,-8.0571,-8.0744,-8.0613,-8.0612,-8.0612,-8.0612,0,-7.9465,-7.9563,-7.964,-7.9712,-7.9824,-7.9869,-7.9977,-8.0025,-8.0097,-8.0178,-8.0196,-8.0271,-8.0322,-8.0404,-8.0437,-8.0549,-8.0572,-8.0594,-8.0601,-8.059,-8.0587,-8.0618,-8.0609,-8.0617,-8.0616,-8.0615,-8.0614,0,-7.9559,-7.9615,-7.9745,-7.9843,-7.987,-7.9947,-8.003,-8.01,-8.0145,-8.0247,-8.0273,-8.0342,-8.044,-8.0489,-8.061,-8.0632,-8.0758,-8.0761,-8.073,-8.0732,-8.0793,-8.0785,-8.0989,-8.1018,-8.087,-8.0872,-8.0873,0,-7.9638,-7.9715,-7.9823,-7.988,-7.9931,-8.0022,-8.0083,-8.0131,-8.0193,-8.0295,-8.0352,-8.0453,-8.0534,-8.069,-8.0749,-8.0843,-8.0846,-8.0912,-8.0859,-8.0847,-8.0843,-8.0836,-8.0843,-8.0919,-8.092,-8.0921,-8.0922,0,-7.9772,-7.9797,-7.9885,-7.9984,-8.0057,-8.0136,-8.0214,-8.0259,-8.032,-8.0389,-8.0491,-8.0555,-8.0681,-8.0779,-8.0878,-8.0926,-8.0934,-8.0939,-8.0959,-8.0946,-8.0924,-8.0934,-8.0751,-8.0933,-8.0932,-8.0931,-8.093,-8.093,-7.9859,-7.9928,-8.0015,-8.0113,-8.0178,-8.0252,-8.0323,-8.0378,-8.0465,-8.0573,-8.0596,-8.0704,-8.0786,-8.092,-8.0972,-8.1056,-8.1041,-8.107,-8.1077,-8.1082,-8.1083,-8.0915,-8.1074,-8.1074,-8.1074,-8.1074,-8.1074,0,-7.9991,-8.0049,-8.0139,-8.025,-8.0327,-8.0333,-8.042,-8.0483,-8.0579,-8.0656,-8.0738,-8.0856,-8.0952,-8.1021,-8.1119,-8.1173,-8.1179,-8.1197,-8.1191,-8.1201,-8.1092,-8.1064,-8.119,-8.119,-8.119,-8.119,-8.119,-8.119,-8.0068,-8.0185,-8.0221,-8.0371,-8.0428,-8.0536,-8.0585,-8.0653,-8.0715,-8.0847,-8.0928,-8.0974,-8.1048,-8.1152,-8.1241,-8.1259,-8.1292,-8.1309,-8.1326,-8.1222,-8.1209,-8.1197,-8.1171,-8.1317,-8.1317,-8.1428,-8.1429,-8.143]},{"header":{"parameterUnit":"m.s-1","parameterCategory":1,"la1":30.2991,"la2":30.254,"lo1":-89.0895,"lo2":-89.0444,"dy":0.0017,"dx":0.0017,"nx":28,"ny":28,"refTime":"2024-04-28T03:00:00:Z","depth":0,"parameterNumber":3,"parameterNumberName":"V-component_of_WINDS"},"data":[0,0,0,0,0,0,0,0,0,0,0,0,0,0,0,0,0,0,0,0,0,0,0,0,0,0,0,0,0,0,0,0,0,0,0,0,0,0,0,0,0,0,0,0,0,0,0,0,0,0,0,0,0,0,0,0,0,0,4.4265,4.4265,0,4.4323,4.4324,4.4325,4.4343,4.4343,4.4343,4.4342,4.4397,4.4399,4.44,0,0,0,0,0,0,0,0,0,0,0,0,0,4.4164,4.4166,4.4265,4.4265,4.4266,4.4323,4.4324,4.4325,4.4343,4.4343,4.4343,4.4342,4.4396,4.4398,4.44,0,0,0,0,0,0,0,0,0,0,0,0,0,4.4214,4.4167,4.4264,4.4282,4.4284,4.4323,4.4324,4.4325,4.4343,4.4343,4.4342,4.4342,4.4396,4.4398,4.4401,4.4424,0,0,4.4408,4.4409,0,0,0,0,0,0,0,0,4.4211,4.4217,4.4279,4.4281,4.4284,4.4326,4.4309,4.4358,4.4343,4.4321,4.4342,4.4342,4.4373,4.4377,4.4389,4.4426,4.4429,4.4409,4.441,4.4411,4.4412,0,0,0,0,0,0,0,4.4207,4.4215,4.4288,4.428,4.4283,4.4286,4.4293,4.4318,4.4348,4.4323,4.4324,4.4331,4.4374,4.4387,4.439,4.443,4.4408,4.4411,4.4412,4.4413,4.449,4.4491,0,0,0,0,0,0,4.4202,4.4212,4.4286,4.4289,4.4246,4.4288,4.4295,4.4312,4.4348,4.4353,4.4331,4.4332,4.4382,4.4388,4.4392,4.4423,4.4411,4.4414,4.4415,4.449,4.449,4.4491,0,0,0,0,0,0,4.42,4.4208,4.4283,4.4251,4.4261,4.429,4.4309,4.4314,4.4326,4.4355,4.436,4.4339,4.4382,4.4389,4.4417,4.4425,4.4415,4.4417,4.4489,4.449,4.4491,4.4484,0,0,0,0,0,0,4.4197,4.4207,4.4217,4.4251,4.4263,4.4308,4.431,4.4315,4.4331,4.4332,4.4363,4.4368,4.4383,4.4413,4.4419,4.4429,4.4419,4.4488,4.4489,4.449,4.4484,4.4485,4.4486,0,0,0,0,0,4.4193,4.4212,4.4218,4.4227,4.4276,4.4308,4.4315,4.4333,4.4332,4.4342,4.436,4.4367,4.4423,4.4415,4.4423,4.4433,4.4488,4.4489,4.449,4.4484,4.4485,4.4486,0,0,0,0,0,0,4.4175,4.4216,4.4224,4.4254,4.4278,4.4311,4.4324,4.4333,4.4357,4.4356,4.4377,4.4383,4.441,4.4424,4.4415,4.4458,4.4456,4.4459,4.4448,4.445,4.445,4.4447,4.4421,0,0,0,0,0,4.4176,4.42,4.4234,4.4257,4.4269,4.4295,4.4309,4.4322,4.4346,4.4356,4.4376,4.4399,4.4422,4.4436,4.4459,4.4486,4.4493,4.4497,4.4498,4.4498,4.45,4.4517,4.4519,4.4495,4.4495,4.4495,0,0,4.4175,4.4201,4.4214,4.4254,4.4274,4.4298,4.4303,4.4327,4.4345,4.4359,4.4388,4.4403,4.4429,4.4457,4.4471,4.447,4.4509,4.45,4.45,4.4502,4.4518,4.4521,4.4523,4.4496,4.4495,4.4495,0,0,4.4187,4.4209,4.4232,4.4252,4.4283,4.43,4.4306,4.4339,4.435,4.438,4.4391,4.4411,4.445,4.4469,4.4484,4.4504,4.4511,4.4511,4.4515,4.4531,4.4533,4.4535,4.4543,4.4546,4.4513,4.4513,4.4513,0,4.4182,4.422,4.4242,4.4267,4.4284,4.43,4.4324,4.4341,4.4377,4.4388,4.4388,4.4438,4.4457,4.449,4.4496,4.4506,4.4513,4.4508,4.4532,4.4534,4.4536,4.4544,4.4547,4.4513,4.4513,4.4513,4.4513,0,4.4213,4.4239,4.4254,4.4291,4.431,4.4334,4.4358,4.4374,4.4385,4.4402,4.4432,4.4455,4.4483,4.4492,4.4501,4.4527,4.4526,4.4528,4.4526,4.4538,4.4546,4.4549,4.4512,4.4512,4.4513,4.4513,0,0,4.4215,4.4266,4.4271,4.4288,4.4325,4.4344,4.4368,4.4399,4.4413,4.4437,4.4457,4.4491,4.4494,4.451,4.4522,4.4536,4.4553,4.4537,4.4538,4.454,4.4583,4.4582,4.4585,4.4558,4.4558,4.4559,4.4581,0,4.4232,4.4279,4.43,4.4336,4.4361,4.4377,4.4398,4.4422,4.4439,4.4461,4.4478,4.4503,4.4504,4.4515,4.4529,4.4548,4.4562,4.4546,4.4576,4.4577,4.4571,4.4589,4.4588,4.4608,4.4584,4.4585,4.4585,0,4.4258,4.4286,4.4326,4.4361,4.4372,4.4391,4.4421,4.4442,4.4469,4.448,4.45,4.4512,4.4537,4.4533,4.4568,4.4557,4.4571,4.4582,4.4583,4.4587,4.4582,4.4594,4.4614,4.4618,4.459,4.459,4.4589,0,4.4257,4.4303,4.4334,4.4349,4.439,4.4403,4.442,4.4447,4.4465,4.449,4.4501,4.4528,4.4543,4.4563,4.4582,4.4577,4.4616,4.4613,4.4625,4.4625,4.4633,4.4632,4.4656,4.464,4.464,4.464,4.464,0,4.4275,4.4298,4.4335,4.4353,4.4381,4.4404,4.4429,4.4448,4.4472,4.4494,4.4508,4.4528,4.4551,4.4574,4.4588,4.4616,4.4622,4.4631,4.4635,4.463,4.4629,4.464,4.4639,4.4641,4.464,4.464,4.464,0,4.4278,4.4303,4.4337,4.4375,4.4384,4.4403,4.4434,4.4452,4.447,4.4498,4.4505,4.4533,4.456,4.4581,4.4616,4.4625,4.4655,4.4658,4.4646,4.4649,4.466,4.4659,4.4692,4.4698,4.4677,4.4677,4.4677,0,4.4287,4.4307,4.4347,4.4364,4.4382,4.4409,4.4427,4.4451,4.4469,4.4503,4.4517,4.4546,4.457,4.4613,4.4635,4.4662,4.4666,4.4676,4.467,4.4666,4.4668,4.4667,4.4669,4.4677,4.4677,4.4677,4.4677,0,4.4303,4.4315,4.4342,4.4374,4.4397,4.4423,4.4448,4.4461,4.4489,4.4508,4.4538,4.4557,4.4594,4.4623,4.4652,4.4668,4.4677,4.4679,4.4684,4.468,4.4673,4.4678,4.465,4.4678,4.4678,4.4678,4.4678,4.4678,4.431,4.4329,4.4361,4.4391,4.4414,4.4438,4.4458,4.448,4.4506,4.4539,4.4551,4.4582,4.4609,4.465,4.4667,4.469,4.469,4.4696,4.4698,4.4699,4.4699,4.4669,4.4695,4.4695,4.4695,4.4695,4.4695,0,4.4327,4.4349,4.4377,4.4414,4.4438,4.4447,4.4477,4.4495,4.4523,4.4549,4.4574,4.4608,4.4636,4.4661,4.469,4.4704,4.4709,4.4711,4.4711,4.4715,4.4697,4.4691,4.4707,4.4707,4.4707,4.4707,4.4707,4.4707,4.4339,4.4372,4.4388,4.4432,4.4453,4.4485,4.4502,4.4524,4.4545,4.4584,4.4608,4.4625,4.4651,4.4682,4.4708,4.4715,4.4725,4.4726,4.4734,4.4717,4.4716,4.4714,4.4709,4.4728,4.4728,4.475,4.475,4.475]}]]